{"data":{"norad_id":66442,"epoch":"2026-09-20T23:34:23.075328Z","epoch_age_seconds":51757,"freshness":"FRESH","line1":"1 66442U 25259W   26263.98221152  .00013621  00000+0  50371-3 0  9995","line2":"2 66442  43.0018 251.8776 0001668 269.3265  90.7396 15.27572646 49350","mean_motion":15.27572646,"eccentricity":0.0001668,"inclination_deg":43.0018,"raan_deg":251.8776,"arg_perigee_deg":269.3265,"mean_anomaly_deg":90.7396,"bstar":0.00050371,"rev_number":4935,"period_min":94.267202530151,"perigee_km":481.92666713572,"apogee_km":484.21556616344,"semimajor_km":6861.2081166496,"source":"CELESTRAK","updated_at":"2026-09-21T09:00:35.910261Z"}}